sat.trackr.live / text

‹ back to catalog

TJS-12

NORAD 62374 · 2024-246A

PAYLOAD ACTIVE UNKNOWN

§ Identity

Operator
Country
PRC
Launch date
2024-12-20
Launch site
XICLF
Launch vehicle
Mass (kg)
RCS (m²)

Purposes: comms

External: N2YO · Heavens-Above · Gunter

§ Orbital elements

Epoch: 2026-05-25T04:26:20.761728Z

Period
1,436.14 min
Inclination
0.7199°
Eccentricity
0.0002183
Mean motion
1.00268562 rev/d
Perigee alt
35,778.3 km
Apogee alt
35,796.7 km
Semi-major
42,165.6 km
B*
0.0000e+0
RAAN
297.1509°
Arg perigee
71.1013°
Mean anomaly
87.5865°
Rev number
533

§ Raw data

TJS-121 62374U 24246A   26145.18496252 -.00000235  00000+0  00000+0 0  99942 62374   0.7199 297.1509 0002183  71.1013  87.5865  1.00268562  5330

JSON: /api/v1/satellites/62374 · /tle

For live sub-satellite position, see the globe view (requires WebGL).

§ Visibility from observer

Set your observer location to see the next 7 days of passes ≥ 10°. The values pass through the URL so the page stays shareable.

No JS? Fill the form by hand. The geolocation button needs JavaScript.